TimeEDT,TemperatureF,Dew PointF,Humidity,Sea Level PressureIn,VisibilityMPH,Wind Direction,Wind SpeedMPH,Gust SpeedMPH,PrecipitationIn,Events,Conditions,WindDirDegrees,DateUTC
12:54 AM,66.9,66.0,97,29.98,5.0,Calm,Calm,-,N/A,,Scattered Clouds,0,2012-10-03 04:54:00
1:54 AM,66.0,66.0,100,29.99,6.0,Calm,Calm,-,N/A,,Scattered Clouds,0,2012-10-03 05:54:00
2:54 AM,66.9,66.0,97,30.00,5.0,Calm,Calm,-,N/A,,Overcast,0,2012-10-03 06:54:00
3:54 AM,66.0,64.9,96,30.00,6.0,Calm,Calm,-,N/A,,Mostly Cloudy,0,2012-10-03 07:54:00
4:54 AM,66.0,64.9,96,30.02,6.0,Calm,Calm,-,0.01,,Overcast,0,2012-10-03 08:54:00
5:54 AM,66.0,64.9,96,30.03,6.0,Calm,Calm,-,N/A,,Mostly Cloudy,0,2012-10-03 09:54:00
6:54 AM,66.0,64.9,96,30.05,6.0,Calm,Calm,-,N/A,,Scattered Clouds,0,2012-10-03 10:54:00
7:33 AM,64.4,64.4,100,30.08,2.0,Calm,Calm,-,N/A,,Clear,0,2012-10-03 11:33:00
7:54 AM,64.9,64.0,97,30.08,2.5,Calm,Calm,-,N/A,,Mostly Cloudy,0,2012-10-03 11:54:00
8:02 AM,64.4,64.4,100,30.09,4.0,Calm,Calm,-,N/A,,Overcast,0,2012-10-03 12:02:00
8:54 AM,69.1,68.0,96,30.09,7.0,Calm,Calm,-,N/A,,Overcast,0,2012-10-03 12:54:00
9:54 AM,71.1,66.9,87,30.11,10.0,Calm,Calm,-,N/A,,Mostly Cloudy,0,2012-10-03 13:54:00
10:54 AM,75.0,64.0,69,30.12,10.0,SW,3.5,-,N/A,,Clear,230,2012-10-03 14:54:00
11:54 AM,75.9,63.0,64,30.12,10.0,Variable,5.8,-,N/A,,Clear,0,2012-10-03 15:54:00
12:54 PM,75.9,64.0,67,30.12,10.0,Variable,4.6,-,N/A,,Clear,0,2012-10-03 16:54:00
1:54 PM,75.0,63.0,66,30.10,10.0,Variable,3.5,-,N/A,,Clear,0,2012-10-03 17:54:00
2:54 PM,73.9,63.0,68,30.10,10.0,Variable,3.5,-,N/A,,Partly Cloudy,0,2012-10-03 18:54:00
3:54 PM,73.0,62.1,68,30.10,10.0,Calm,Calm,-,N/A,,Mostly Cloudy,0,2012-10-03 19:54:00
4:54 PM,72.0,64.0,76,30.12,10.0,Calm,Calm,-,N/A,,Scattered Clouds,0,2012-10-03 20:54:00
5:54 PM,71.1,64.9,81,30.12,10.0,Calm,Calm,-,N/A,,Scattered Clouds,0,2012-10-03 21:54:00
6:54 PM,69.1,66.0,90,30.14,10.0,Calm,Calm,-,N/A,,Partly Cloudy,0,2012-10-03 22:54:00
7:54 PM,69.1,64.9,87,30.15,10.0,Calm,Calm,-,N/A,,Mostly Cloudy,0,2012-10-03 23:54:00
8:54 PM,66.9,64.9,93,30.16,10.0,Calm,Calm,-,N/A,,Mostly Cloudy,0,2012-10-04 00:54:00
9:54 PM,66.9,66.0,97,30.18,10.0,Calm,Calm,-,N/A,,Overcast,0,2012-10-04 01:54:00
10:54 PM,66.9,63.0,87,30.20,10.0,Calm,Calm,-,0.01,Rain,Light Rain,0,2012-10-04 02:54:00
11:54 PM,64.0,63.0,96,30.20,10.0,Calm,Calm,-,0.01,Rain,Light Rain,0,2012-10-04 03:54:00